TIGRISAT

Last updated on Fri Sep 19 2025 00:03:49 GMT+0000 (Coordinated Universal Time)

1 40043U 14033AK 25260.92237012 .00002415 00000+0 29461-3 0 9999 2 40043 97.7483 53.0765 0049846 246.8328 112.7630 14.83385118605239
UTC large
Height (km)
Speed (km/s)
/
Latitude / Longitude
Inclination (degrees)
Orbital Period (minutes)
Azimuth
Elevation
Range (km)
Doppler Factor

Next 0 passes for location: London (51.5072 / 0.1276)

Sorry there are no passes over London.